This is the latest recevied weather packets stored in our database for station/object DF7PN-WX. If no packets are shown the sender has not sent any weather packets the latest 10 day(s).
| Time | Temp. | Humidity | Pressure | Rain* | Wind** | Luminosity | Snow |
|---|---|---|---|---|---|---|---|
| 1777968072 | 18.89° C | 66% | 1010 hPa | - | - | - | - |
| 1777967772 | 18.89° C | 65% | 1010 hPa | - | - | - | - |
| 1777967472 | 18.89° C | 69% | 1010 hPa | - | - | - | - |
| 1777967172 | 17.78° C | 72% | 1010.1 hPa | - | - | - | - |
| 1777966872 | 17.78° C | 71% | 1010.2 hPa | - | - | - | - |
| 1777966572 | 18.33° C | 71% | 1010.1 hPa | - | - | - | - |
| 1777966272 | 18.33° C | 70% | 1010.2 hPa | - | - | - | - |
| 1777965972 | 18.33° C | 72% | 1010.2 hPa | - | - | - | - |
| 1777965672 | 17.78° C | 74% | 1010.3 hPa | - | - | - | - |
| 1777965372 | 17.22° C | 74% | 1010.4 hPa | - | - | - | - |
| 1777965071 | 17.22° C | 76% | 1010.4 hPa | - | - | - | - |
| 1777964772 | 16.67° C | 79% | 1010.4 hPa | - | - | - | - |
| 1777964471 | 16.11° C | 83% | 1010.4 hPa | - | - | - | - |
| 1777964171 | 16.11° C | 88% | 1010.4 hPa | - | - | - | - |
| 1777963871 | 15.56° C | 89% | 1010.5 hPa | - | - | - | - |
| 1777963571 | 15.56° C | 92% | 1010.5 hPa | - | - | - | - |
| 1777963271 | 15.56° C | 92% | 1010.5 hPa | - | - | - | - |
| 1777962971 | 16.11° C | 92% | 1010.6 hPa | - | - | - | - |
| 1777962671 | 15.56° C | 93% | 1010.7 hPa | - | - | - | - |
| 1777962371 | 15.56° C | 94% | 1010.7 hPa | - | - | - | - |
| 1777962071 | 15.56° C | 96% | 1010.7 hPa | - | - | - | - |
| 1777961771 | 15° C | 96% | 1010.6 hPa | - | - | - | - |
| 1777961471 | 15° C | 97% | 1010.6 hPa | - | - | - | - |
| 1777961171 | 15° C | 99% | 1010.6 hPa | - | - | - | - |
| 1777960870 | 14.44° C | 99% | 1010.6 hPa | - | - | - | - |
* Rain since midnight (hover to see other rain measurements)
** Current wind speed in m/s (hover to see current wind gust speed)